Location: ????????
(41.2031°N, 22.5756°E)
Time: 06:07:00
(UTC+00:00)

Meteor 1-26 Rocket - Pass Details

Date: 01 December 2020
Orbit: 807 x 928 km, 81.3° (Epoch: 20 January)

Event Time Altitude Azimuth Distance (km) Brightness Sun altitude
Rises 16:01:29 0° 186° (S) 3,554 7.8 -11.1°
Reaches altitude 10° 16:03:56 10° 186° (S) 2,620 7.1 -11.6°
Maximum altitude 16:09:58 86° 98° (E) 935 4.4 -12.6°
Drops below altitude 10° 16:16:00 10° 11° (N) 2,624 6.5 -13.7°
Sets 16:18:28 0° 11° (N) 3,560 7.2 -14.2°
